Location: Vinland
(47.7731°N, 122.6974°W)
Time: 14:39:46
(UTC+00:00)

A-11 Canister half - All Passes

Search period start: 30 March 2023 00:00
Search period end: 09 April 2023 00:00
Orbit: 1526 x 1682 km, 47.3° (Epoch: 29 March)

Date Brightness Start Highest point End Pass type
(mag) Time Alt. Az. Time Alt. Az. Time Alt. Az.
30 Mar - 01:07:09 10° WSW 01:17:18 85° S 01:27:08 10° E daylight
30 Mar - 03:12:29 10° W 03:22:30 81° SSW 03:32:08 10° ESE visible
30 Mar - 05:17:47 10° WNW 05:26:54 45° SW 05:35:44 10° SSE visible
30 Mar - 07:25:38 10° W 07:29:51 14° WSW 07:34:01 10° SSW visible
30 Mar - 20:41:25 10° SSE 20:47:33 18° SE 20:53:38 10° E daylight
30 Mar - 22:41:15 10° SW 22:50:53 51° SE 23:00:21 10° ENE daylight
31 Mar - 00:45:25 10° WSW 00:55:34 84° SSE 01:05:26 10° E daylight
31 Mar - 02:50:44 10° W 03:00:46 82° SSW 03:10:27 10° ESE visible
31 Mar - 04:56:02 10° WNW 05:05:14 47° SW 05:14:10 10° SSE visible
31 Mar - 07:03:30 10° W 07:08:16 15° SW 07:12:57 10° SSW visible
31 Mar - 20:20:08 10° SSE 20:25:55 17° SE 20:31:40 10° E daylight
31 Mar - 22:19:37 10° SW 22:29:11 49° SE 22:38:37 10° ENE daylight
01 Apr - 00:23:41 10° WSW 00:33:49 83° SSE 00:43:42 10° E daylight
01 Apr - 02:28:58 10° W 02:39:02 83° SSW 02:48:45 10° ESE daylight
01 Apr - 04:34:16 10° WNW 04:43:35 49° SW 04:52:35 10° SE visible
01 Apr - 06:41:26 10° W 06:46:40 16° SW 06:51:50 10° SSW visible
01 Apr - 19:58:55 10° SSE 20:04:18 16° SE 20:09:39 10° E daylight
01 Apr - 21:57:59 10° SSW 22:07:30 48° SE 22:16:53 10° ENE daylight
02 Apr - 00:01:55 10° WSW 00:12:05 82° SSE 00:22:00 10° E daylight
02 Apr - 02:07:13 10° W 02:17:19 84° S 02:27:04 10° ESE daylight
02 Apr - 04:12:30 10° WNW 04:21:55 51° SW 04:31:01 10° SE visible
02 Apr - 06:19:26 10° W 06:25:04 17° SW 06:30:38 10° SSW visible
02 Apr - 19:37:46 10° SSE 19:42:41 15° ESE 19:47:35 10° E daylight
02 Apr - 21:36:23 10° SSW 21:45:49 46° SE 21:55:09 10° ENE daylight
02 Apr - 23:40:11 10° WSW 23:50:21 81° SSE 00:00:17 10° E daylight
03 Apr - 01:45:28 10° W 01:55:35 85° S 02:05:22 10° ESE daylight
03 Apr - 03:50:45 10° WNW 04:00:14 52° SSW 04:09:25 10° SE visible
03 Apr - 05:57:27 10° W 06:03:29 18° SW 06:09:24 10° SSW visible
03 Apr - 19:16:41 10° SSE 19:21:05 14° ESE 19:25:27 10° E daylight
03 Apr - 21:14:46 10° SSW 21:24:08 44° SE 21:33:24 10° ENE daylight
03 Apr - 23:18:27 10° WSW 23:28:37 80° SSE 23:38:34 10° E daylight
04 Apr - 01:23:43 10° W 01:33:50 86° S 01:43:41 10° ESE daylight
04 Apr - 03:28:59 10° WNW 03:38:33 54° SSW 03:47:49 10° SE visible
04 Apr - 05:35:30 10° W 05:41:52 20° SW 05:48:07 10° S visible
04 Apr - 18:55:43 10° SE 18:59:28 13° ESE 19:03:13 10° E daylight
04 Apr - 20:53:10 10° SSW 21:02:27 43° SE 21:11:40 10° ENE daylight
04 Apr - 22:56:43 10° WSW 23:06:53 79° SSE 23:16:51 10° E daylight
05 Apr - 01:01:56 10° W 01:12:06 86° S 01:21:58 10° E daylight
05 Apr - 03:07:13 10° WNW 03:16:53 56° SSW 03:26:13 10° SE visible
05 Apr - 05:13:35 10° W 05:20:16 21° SW 05:26:48 10° S visible
05 Apr - 18:34:54 10° SE 18:37:52 12° ESE 18:40:49 10° ESE daylight
05 Apr - 20:31:36 10° SSW 20:40:47 41° SE 20:49:54 10° ENE daylight
05 Apr - 22:35:00 10° WSW 22:45:09 77° SSE 22:55:08 10° E daylight
06 Apr - 00:40:11 10° W 00:50:22 87° S 01:00:15 10° E daylight
06 Apr - 02:45:28 10° WNW 02:55:11 58° SSW 03:04:35 10° SE daylight
06 Apr - 04:51:41 10° W 04:58:39 22° SW 05:05:29 10° S visible
06 Apr - 18:14:32 10° SE 18:16:16 11° ESE 18:18:00 10° ESE daylight
06 Apr - 20:10:01 10° SSW 20:19:06 39° SE 20:28:09 10° ENE daylight
06 Apr - 22:13:16 10° WSW 22:23:25 76° SSE 22:33:25 10° ENE daylight
07 Apr - 00:18:26 10° W 00:28:37 87° S 00:38:33 10° E daylight
07 Apr - 02:23:43 10° WNW 02:33:30 60° SSW 02:42:58 10° SE daylight
07 Apr - 04:29:48 10° W 04:37:02 24° SW 04:44:07 10° S visible
07 Apr - 19:48:27 10° SSW 19:57:26 38° SE 20:06:23 10° ENE daylight
07 Apr - 21:51:34 10° WSW 22:01:41 75° SSE 22:11:41 10° ENE daylight
07 Apr - 23:56:41 10° W 00:06:53 88° S 00:16:50 10° E daylight
08 Apr - 02:01:57 10° WNW 02:11:48 62° SSW 02:21:19 10° SE daylight
08 Apr - 04:07:57 10° W 04:15:24 25° SW 04:22:44 10° S visible
08 Apr - 19:26:54 10° SSW 19:35:46 36° SE 19:44:36 10° ENE daylight
08 Apr - 21:29:50 10° WSW 21:39:57 73° SSE 21:49:58 10° ENE daylight
08 Apr - 23:34:56 10° W 23:45:08 88° S 23:55:07 10° E daylight
